SBI2160 URML-UUDD

Flight info

Callsign SBI2160
Flight time 2h 14m
Altitude 38000
Route AMKOL1P AMKOL B945 UP N50 OLOPI OLOPI3N
Aircraft A319/M-SDE3FGHIRWY/LB1

Departure

Time 2026-04-22 16:34
Airport Makhachkala Uytash International Airport (URML)

Arrival

Time 2026-04-22 18:48
Airport Domodedovo International Airport (UUDD)
Time Latitude Longitude Altitude Speed Heading
2026-04-22 16:17 42.81972 47.65575 7 ft 0 kts 59°
2026-04-22 16:27 42.81972 47.65574 7 ft 1 kts 59°
2026-04-22 16:28 42.81957 47.65541 7 ft 6 kts 59°
2026-04-22 16:28 42.81948 47.65492 8 ft 5 kts 110°
2026-04-22 16:28 42.81963 47.65453 7 ft 5 kts 133°
2026-04-22 16:28 42.81945 47.65470 8 ft 3 kts 147°
2026-04-22 16:29 42.81924 47.65489 8 ft 4 kts 145°
2026-04-22 16:29 42.81889 47.65522 8 ft 7 kts 144°
2026-04-22 16:29 42.81833 47.65573 9 ft 11 kts 160°
2026-04-22 16:29 42.81760 47.65522 10 ft 13 kts 231°
2026-04-22 16:30 42.81722 47.65447 10 ft 14 kts 232°
2026-04-22 16:30 42.81621 47.65320 14 ft 15 kts 180°
2026-04-22 16:30 42.81514 47.65387 15 ft 18 kts 149°
2026-04-22 16:30 42.81396 47.65493 18 ft 21 kts 150°
2026-04-22 16:31 42.81259 47.65606 19 ft 24 kts 149°
2026-04-22 16:31 42.81105 47.65736 20 ft 27 kts 148°
2026-04-22 16:31 42.80936 47.65866 21 ft 26 kts 153°
2026-04-22 16:31 42.80779 47.66001 21 ft 25 kts 149°
2026-04-22 16:32 42.80715 47.66117 20 ft 7 kts 20°
2026-04-22 16:32 42.80732 47.66110 20 ft 0 kts 318°
2026-04-22 16:32 42.80736 47.66102 20 ft 1 kts 304°
2026-04-22 16:32 42.80743 47.66081 20 ft 3 kts 291°
2026-04-22 16:33 42.80757 47.66042 21 ft 6 kts 308°
2026-04-22 16:33 42.80779 47.66015 21 ft 0 kts 329°
2026-04-22 16:33 42.80970 47.65846 20 ft 78 kts 327°
2026-04-22 16:33 42.81691 47.65233 16 ft 158 kts 327°
2026-04-22 16:34 42.82748 47.64338 375 ft 192 kts 328°
2026-04-22 16:34 42.83948 47.63262 745 ft 224 kts 319°
2026-04-22 16:34 42.84908 47.61529 1693 ft 239 kts 300°
2026-04-22 16:34 42.85972 47.59699 2591 ft 259 kts 322°
2026-04-22 16:35 42.87600 47.58643 3620 ft 270 kts 343°
2026-04-22 16:35 42.89421 47.58059 4794 ft 276 kts 352°
2026-04-22 16:35 42.91337 47.57969 5984 ft 279 kts
2026-04-22 16:35 42.93208 47.58568 7176 ft 280 kts 20°
2026-04-22 16:36 42.95051 47.59391 8282 ft 285 kts 12°
2026-04-22 16:36 42.97032 47.59790 9346 ft 290 kts
2026-04-22 16:36 42.99036 47.60031 10404 ft 294 kts
2026-04-22 16:36 43.01086 47.60192 11471 ft 298 kts
2026-04-22 16:37 43.03140 47.60313 12476 ft 302 kts 359°
2026-04-22 16:37 43.05267 47.60429 13454 ft 306 kts 359°
2026-04-22 16:37 43.07375 47.60538 14398 ft 310 kts 358°
2026-04-22 16:37 43.09526 47.60498 15332 ft 312 kts 353°
2026-04-22 16:38 43.11683 47.60211 16238 ft 314 kts 348°
2026-04-22 16:38 43.13157 47.59930 16834 ft 317 kts 347°
2026-04-22 16:38 43.15343 47.59491 17697 ft 321 kts 347°
2026-04-22 16:38 43.17560 47.59039 18542 ft 325 kts 347°
2026-04-22 16:39 43.19844 47.58569 19083 ft 338 kts 347°
2026-04-22 16:39 43.22223 47.58078 19448 ft 356 kts 347°
2026-04-22 16:39 43.24716 47.57568 19820 ft 372 kts 347°
2026-04-22 16:39 43.27315 47.57043 20481 ft 378 kts 347°
2026-04-22 16:40 43.29933 47.56517 21249 ft 381 kts 347°
2026-04-22 16:40 43.32549 47.55989 21988 ft 384 kts 347°
2026-04-22 16:40 43.37887 47.54910 23410 ft 391 kts 347°
2026-04-22 16:41 43.40582 47.54363 24074 ft 394 kts 347°
2026-04-22 16:41 43.43286 47.53813 24696 ft 398 kts 347°
2026-04-22 16:41 43.46024 47.53256 25295 ft 401 kts 347°
2026-04-22 16:41 43.48813 47.52687 25872 ft 405 kts 347°
2026-04-22 16:42 43.51581 47.52121 26430 ft 409 kts 347°
2026-04-22 16:42 43.54430 47.51538 26991 ft 412 kts 347°
2026-04-22 16:42 43.57264 47.50957 27510 ft 416 kts 347°
2026-04-22 16:42 43.60137 47.50371 28019 ft 420 kts 347°
2026-04-22 16:43 43.63033 47.49791 28513 ft 424 kts 347°
2026-04-22 16:43 43.65984 47.49256 29011 ft 427 kts 348°
2026-04-22 16:43 43.68932 47.48737 29478 ft 430 kts 348°
2026-04-22 16:43 43.71900 47.48215 29956 ft 433 kts 348°
2026-04-22 16:44 43.74897 47.47684 30405 ft 436 kts 347°
2026-04-22 16:44 43.77909 47.47145 30825 ft 439 kts 347°
2026-04-22 16:44 43.80955 47.46596 31217 ft 441 kts 347°
2026-04-22 16:44 43.83965 47.46056 31685 ft 441 kts 347°
2026-04-22 16:45 43.87004 47.45511 32215 ft 439 kts 347°
2026-04-22 16:45 43.90037 47.44963 32727 ft 437 kts 347°
2026-04-22 16:45 43.93059 47.44416 33194 ft 437 kts 347°
2026-04-22 16:45 43.96045 47.43874 33641 ft 436 kts 347°
2026-04-22 16:46 43.99061 47.43326 34086 ft 436 kts 346°
2026-04-22 16:46 44.02057 47.42781 34516 ft 435 kts 346°
2026-04-22 16:46 44.05046 47.42236 34916 ft 435 kts 346°
2026-04-22 16:46 44.08042 47.41689 35230 ft 434 kts 346°
2026-04-22 16:47 44.11048 47.41139 35534 ft 435 kts 346°
2026-04-22 16:47 44.14066 47.40590 35777 ft 435 kts 346°
2026-04-22 16:47 44.17067 47.40044 36015 ft 435 kts 347°
2026-04-22 16:47 44.20051 47.39499 36231 ft 436 kts 346°
2026-04-22 16:48 44.23046 47.38952 36420 ft 437 kts 346°
2026-04-22 16:48 44.26084 47.38394 36671 ft 439 kts 347°
2026-04-22 16:48 44.29118 47.37835 36903 ft 441 kts 347°
2026-04-22 16:48 44.32167 47.37275 37142 ft 443 kts 347°
2026-04-22 16:49 44.35218 47.36713 37373 ft 444 kts 347°
2026-04-22 16:49 44.38289 47.36145 37592 ft 446 kts 347°
2026-04-22 16:49 44.41383 47.35572 37799 ft 447 kts 347°
2026-04-22 16:50 44.47564 47.34417 37901 ft 450 kts 346°
2026-04-22 16:50 44.53788 47.33243 37899 ft 450 kts 346°
2026-04-22 16:51 44.60008 47.32039 37907 ft 451 kts 346°
2026-04-22 16:51 44.66245 47.30830 37909 ft 451 kts 346°
2026-04-22 16:52 44.72453 47.29625 37912 ft 452 kts 346°
2026-04-22 16:52 44.75567 47.29018 38091 ft 452 kts 346°
2026-04-22 16:52 44.78670 47.28414 37994 ft 451 kts 346°
2026-04-22 16:53 44.84898 47.27203 37929 ft 451 kts 346°
2026-04-22 16:53 44.91128 47.25984 37920 ft 452 kts 346°
2026-04-22 16:54 44.97349 47.24764 37919 ft 451 kts 346°
2026-04-22 16:54 45.03574 47.23542 37894 ft 452 kts 346°
2026-04-22 16:55 45.09815 47.22322 37901 ft 452 kts 346°
2026-04-22 16:55 45.16064 47.21115 37909 ft 453 kts 346°
2026-04-22 16:56 45.22326 47.19901 37899 ft 454 kts 346°
2026-04-22 16:56 45.28559 47.18682 37899 ft 454 kts 346°
2026-04-22 16:57 45.34833 47.17451 37896 ft 455 kts 346°
2026-04-22 16:57 45.41098 47.16220 37888 ft 455 kts 345°
2026-04-22 16:58 45.46321 47.15188 37883 ft 456 kts 346°
2026-04-22 16:58 45.53657 47.13738 37898 ft 456 kts 346°
2026-04-22 16:59 45.59967 47.12487 37895 ft 457 kts 346°
2026-04-22 16:59 45.66246 47.11240 37892 ft 458 kts 345°
2026-04-22 17:00 45.72544 47.09999 37881 ft 459 kts 346°
2026-04-22 17:00 45.82050 47.08129 37890 ft 460 kts 346°
2026-04-22 17:01 45.88333 47.06509 37880 ft 456 kts 340°
2026-04-22 17:01 45.94369 47.03899 37892 ft 451 kts 333°
2026-04-22 17:02 46.00068 47.00346 37880 ft 446 kts 326°
2026-04-22 17:02 46.05534 46.96155 37874 ft 445 kts 325°
2026-04-22 17:03 46.10944 46.91921 37884 ft 445 kts 325°
2026-04-22 17:03 46.16396 46.87691 37890 ft 445 kts 325°
2026-04-22 17:04 46.21912 46.83592 37875 ft 448 kts 328°
2026-04-22 17:04 46.27544 46.79791 37881 ft 449 kts 329°
2026-04-22 17:05 46.33189 46.75986 37874 ft 449 kts 329°
2026-04-22 17:05 46.38829 46.72170 37873 ft 448 kts 329°
2026-04-22 17:06 46.44469 46.68335 37885 ft 449 kts 329°
2026-04-22 17:06 46.50070 46.64518 37879 ft 449 kts 329°
2026-04-22 17:07 46.55722 46.60657 37881 ft 449 kts 329°
2026-04-22 17:07 46.61356 46.56799 37876 ft 449 kts 329°
2026-04-22 17:08 46.67020 46.52911 37871 ft 450 kts 329°
2026-04-22 17:08 46.72652 46.49039 37875 ft 449 kts 329°
2026-04-22 17:09 46.78299 46.45143 37870 ft 451 kts 329°
2026-04-22 17:09 46.83950 46.41237 37873 ft 451 kts 329°
2026-04-22 17:10 46.89578 46.37336 37867 ft 451 kts 329°
2026-04-22 17:10 46.95266 46.33376 37857 ft 451 kts 328°
2026-04-22 17:11 47.00917 46.29415 37866 ft 452 kts 328°
2026-04-22 17:11 47.06560 46.25470 37862 ft 451 kts 328°
2026-04-22 17:12 47.12235 46.21501 37854 ft 452 kts 328°
2026-04-22 17:12 47.17884 46.17560 37854 ft 452 kts 328°
2026-04-22 17:13 47.23564 46.13569 37849 ft 452 kts 328°
2026-04-22 17:13 47.29214 46.09582 37853 ft 451 kts 329°
2026-04-22 17:14 47.34879 46.05571 37851 ft 452 kts 329°
2026-04-22 17:14 47.40547 46.01556 37848 ft 452 kts 329°
2026-04-22 17:15 47.46213 45.97557 37838 ft 453 kts 329°
2026-04-22 17:15 47.51881 45.93541 37839 ft 452 kts 329°
2026-04-22 17:16 47.57546 45.89516 37831 ft 451 kts 329°
2026-04-22 17:16 47.63182 45.85500 37829 ft 451 kts 329°
2026-04-22 17:17 47.68825 45.81467 37830 ft 451 kts 329°
2026-04-22 17:17 47.74485 45.77412 37827 ft 451 kts 329°
2026-04-22 17:18 47.80106 45.73378 37823 ft 451 kts 329°
2026-04-22 17:18 47.85723 45.69335 37820 ft 450 kts 329°
2026-04-22 17:19 47.96981 45.61200 37824 ft 450 kts 329°
2026-04-22 17:20 48.08242 45.53027 37812 ft 451 kts 329°
2026-04-22 17:21 48.16682 45.46896 37805 ft 451 kts 330°
2026-04-22 17:22 48.25129 45.40723 37803 ft 452 kts 330°
2026-04-22 17:23 48.33569 45.34512 37796 ft 451 kts 329°
2026-04-22 17:23 48.41746 45.27584 37797 ft 447 kts 321°
2026-04-22 17:24 48.46722 45.22057 37793 ft 445 kts 318°
2026-04-22 17:24 48.51606 45.16330 37790 ft 446 kts 318°
2026-04-22 17:25 48.56507 45.10570 37782 ft 446 kts 318°
2026-04-22 17:25 48.61384 45.04833 37781 ft 446 kts 318°
2026-04-22 17:26 48.66263 44.99082 37775 ft 446 kts 318°
2026-04-22 17:26 48.71173 44.93283 37779 ft 446 kts 318°
2026-04-22 17:27 48.76039 44.87520 37772 ft 447 kts 318°
2026-04-22 17:27 48.80938 44.81699 37772 ft 447 kts 318°
2026-04-22 17:28 48.85784 44.75872 37765 ft 447 kts 317°
2026-04-22 17:28 48.90597 44.69854 37766 ft 447 kts 317°
2026-04-22 17:29 48.95367 44.63865 37763 ft 448 kts 317°
2026-04-22 17:29 49.00192 44.57805 37759 ft 448 kts 317°
2026-04-22 17:30 49.04974 44.51786 37765 ft 448 kts 317°
2026-04-22 17:30 49.09781 44.45722 37762 ft 449 kts 317°
2026-04-22 17:31 49.14580 44.39685 37766 ft 449 kts 317°
2026-04-22 17:31 49.19375 44.33629 37770 ft 449 kts 317°
2026-04-22 17:32 49.24173 44.27510 37770 ft 449 kts 317°
2026-04-22 17:32 49.28966 44.21389 37776 ft 449 kts 317°
2026-04-22 17:33 49.33786 44.15225 37780 ft 449 kts 317°
2026-04-22 17:33 49.38564 44.09098 37773 ft 450 kts 317°
2026-04-22 17:34 49.43358 44.02936 37779 ft 450 kts 317°
2026-04-22 17:34 49.48157 43.96749 37776 ft 450 kts 317°
2026-04-22 17:35 49.52918 43.90605 37776 ft 451 kts 317°
2026-04-22 17:35 49.57749 43.84390 37772 ft 451 kts 317°
2026-04-22 17:36 49.62545 43.78200 37775 ft 452 kts 317°
2026-04-22 17:36 49.67354 43.71970 37775 ft 452 kts 317°
2026-04-22 17:37 49.72176 43.65705 37772 ft 453 kts 317°
2026-04-22 17:37 49.76966 43.59465 37765 ft 453 kts 317°
2026-04-22 17:38 49.81780 43.53176 37762 ft 454 kts 317°
2026-04-22 17:38 49.86597 43.46865 37760 ft 454 kts 317°
2026-04-22 17:39 49.91378 43.40585 37756 ft 454 kts 317°
2026-04-22 17:40 49.98634 43.31009 37762 ft 455 kts 317°
2026-04-22 17:40 50.03427 43.24643 37760 ft 455 kts 317°
2026-04-22 17:41 50.08239 43.18252 37757 ft 455 kts 317°
2026-04-22 17:41 50.13041 43.11882 37757 ft 456 kts 317°
2026-04-22 17:42 50.17874 43.05474 37755 ft 456 kts 317°
2026-04-22 17:42 50.22680 42.99062 37755 ft 456 kts 317°
2026-04-22 17:43 50.27490 42.92616 37758 ft 456 kts 317°
2026-04-22 17:43 50.32279 42.86175 37758 ft 456 kts 317°
2026-04-22 17:44 50.37089 42.79688 37760 ft 456 kts 317°
2026-04-22 17:44 50.41869 42.73221 37761 ft 456 kts 317°
2026-04-22 17:45 50.46686 42.66682 37763 ft 456 kts 317°
2026-04-22 17:45 50.51442 42.60219 37764 ft 456 kts 318°
2026-04-22 17:46 50.56493 42.54158 37767 ft 458 kts 323°
2026-04-22 17:46 50.61740 42.48536 37767 ft 458 kts 324°
2026-04-22 17:47 50.67016 42.42908 37766 ft 458 kts 324°
2026-04-22 17:47 50.72277 42.37264 37765 ft 458 kts 324°
2026-04-22 17:48 50.76644 42.32555 37764 ft 458 kts 323°
2026-04-22 17:48 50.82761 42.25915 37764 ft 458 kts 323°
2026-04-22 17:49 50.88039 42.20184 37766 ft 458 kts 323°
2026-04-22 17:49 50.93282 42.14482 37762 ft 458 kts 323°
2026-04-22 17:50 50.98536 42.08754 37764 ft 458 kts 323°
2026-04-22 17:50 51.03753 42.03052 37760 ft 459 kts 324°
2026-04-22 17:51 51.09021 41.97279 37760 ft 458 kts 324°
2026-04-22 17:51 51.14266 41.91538 37762 ft 458 kts 324°
2026-04-22 17:52 51.19511 41.85785 37764 ft 458 kts 324°
2026-04-22 17:52 51.24744 41.80011 37765 ft 457 kts 324°
2026-04-22 17:53 51.29965 41.74226 37762 ft 457 kts 324°
2026-04-22 17:53 51.35161 41.68451 37761 ft 457 kts 324°
2026-04-22 17:54 51.40365 41.62650 37761 ft 456 kts 324°
2026-04-22 17:54 51.45554 41.56847 37761 ft 456 kts 324°
2026-04-22 17:55 51.49887 41.51989 37762 ft 456 kts 324°
2026-04-22 17:55 51.55922 41.45203 37761 ft 456 kts 324°
2026-04-22 17:56 51.61103 41.39354 37759 ft 455 kts 324°
2026-04-22 17:56 51.66289 41.33483 37758 ft 455 kts 323°
2026-04-22 17:57 51.71437 41.27630 37757 ft 455 kts 323°
2026-04-22 17:57 51.76622 41.21734 37754 ft 455 kts 324°
2026-04-22 17:58 51.81789 41.15846 37751 ft 455 kts 324°
2026-04-22 17:58 51.86928 41.09973 37751 ft 455 kts 324°
2026-04-22 17:59 51.92079 41.04068 37747 ft 455 kts 324°
2026-04-22 17:59 51.97228 40.98150 37744 ft 455 kts 324°
2026-04-22 18:00 52.01548 40.93169 37742 ft 455 kts 324°
2026-04-22 18:00 52.07732 40.86797 37738 ft 455 kts 330°
2026-04-22 18:01 52.13238 40.81751 37737 ft 455 kts 330°
2026-04-22 18:01 52.18772 40.76700 37735 ft 454 kts 330°
2026-04-22 18:02 52.24252 40.71647 37732 ft 454 kts 330°
2026-04-22 18:02 52.29730 40.66567 37730 ft 454 kts 330°
2026-04-22 18:03 52.35193 40.61489 37729 ft 453 kts 330°
2026-04-22 18:03 52.40669 40.56390 37728 ft 453 kts 330°
2026-04-22 18:04 52.46119 40.51288 37726 ft 453 kts 330°
2026-04-22 18:04 52.51584 40.46168 37729 ft 452 kts 330°
2026-04-22 18:05 52.57046 40.41082 37727 ft 452 kts 331°
2026-04-22 18:05 52.62495 40.35989 37724 ft 452 kts 331°
2026-04-22 18:06 52.67912 40.30884 37719 ft 452 kts 330°
2026-04-22 18:06 52.73348 40.25742 37718 ft 451 kts 330°
2026-04-22 18:07 52.78770 40.20615 37720 ft 451 kts 330°
2026-04-22 18:07 52.84218 40.15455 37708 ft 451 kts 330°
2026-04-22 18:08 52.89642 40.10309 37718 ft 450 kts 330°
2026-04-22 18:08 52.95055 40.05156 37713 ft 450 kts 330°
2026-04-22 18:09 53.00504 39.99954 37709 ft 450 kts 330°
2026-04-22 18:09 53.05893 39.94792 37706 ft 449 kts 330°
2026-04-22 18:10 53.11324 39.89578 37702 ft 449 kts 330°
2026-04-22 18:10 53.16704 39.84420 37518 ft 443 kts 330°
2026-04-22 18:10 53.19352 39.81869 37051 ft 441 kts 331°
2026-04-22 18:11 53.21992 39.79317 36569 ft 439 kts 331°
2026-04-22 18:11 53.24600 39.76790 36157 ft 435 kts 331°
2026-04-22 18:11 53.27185 39.74281 35711 ft 432 kts 331°
2026-04-22 18:11 53.29776 39.71761 35225 ft 431 kts 332°
2026-04-22 18:12 53.32357 39.69249 34714 ft 430 kts 332°
2026-04-22 18:12 53.34932 39.66739 34216 ft 430 kts 332°
2026-04-22 18:12 53.36641 39.65070 33856 ft 429 kts 332°
2026-04-22 18:12 53.40056 39.61735 33103 ft 428 kts 333°
2026-04-22 18:13 53.42664 39.59370 32503 ft 426 kts 336°
2026-04-22 18:13 53.45270 39.57146 31891 ft 425 kts 337°
2026-04-22 18:13 53.47921 39.54913 31154 ft 423 kts 338°
2026-04-22 18:13 53.50513 39.52731 30378 ft 421 kts 337°
2026-04-22 18:14 53.53103 39.50548 29738 ft 416 kts 337°
2026-04-22 18:14 53.55689 39.48362 29080 ft 410 kts 337°
2026-04-22 18:14 53.58201 39.46233 28412 ft 406 kts 337°
2026-04-22 18:14 53.60691 39.44116 27727 ft 402 kts 336°
2026-04-22 18:15 53.63166 39.42007 27028 ft 398 kts 336°
2026-04-22 18:15 53.65619 39.39913 26329 ft 394 kts 336°
2026-04-22 18:15 53.68033 39.37851 25637 ft 390 kts 336°
2026-04-22 18:15 53.70441 39.35788 24937 ft 386 kts 336°
2026-04-22 18:16 53.72798 39.33763 24262 ft 382 kts 335°
2026-04-22 18:16 53.75140 39.31738 23583 ft 378 kts 335°
2026-04-22 18:16 53.77474 39.29723 22901 ft 375 kts 335°
2026-04-22 18:16 53.79792 39.27723 22223 ft 372 kts 334°
2026-04-22 18:17 53.82068 39.25760 21574 ft 368 kts 334°
2026-04-22 18:17 53.84337 39.23802 20935 ft 365 kts 334°
2026-04-22 18:17 53.86591 39.21857 20290 ft 362 kts 334°
2026-04-22 18:17 53.88813 39.19936 19677 ft 359 kts 334°
2026-04-22 18:18 53.91017 39.18028 19074 ft 356 kts 333°
2026-04-22 18:18 53.93198 39.16138 18480 ft 353 kts 333°
2026-04-22 18:18 53.95381 39.14242 17894 ft 350 kts 333°
2026-04-22 18:18 53.97528 39.12374 17318 ft 347 kts 333°
2026-04-22 18:19 53.99643 39.10533 16760 ft 344 kts 333°
2026-04-22 18:19 54.01767 39.08683 16197 ft 341 kts 333°
2026-04-22 18:19 54.03874 39.06844 15647 ft 338 kts 333°
2026-04-22 18:19 54.05953 39.05027 15095 ft 336 kts 332°
2026-04-22 18:20 54.08007 39.03231 14554 ft 333 kts 332°
2026-04-22 18:20 54.10046 39.01446 14018 ft 330 kts 332°
2026-04-22 18:20 54.12094 38.99657 13467 ft 328 kts 332°
2026-04-22 18:20 54.14091 38.97915 12917 ft 325 kts 332°
2026-04-22 18:21 54.16087 38.96167 12370 ft 322 kts 332°
2026-04-22 18:21 54.18094 38.94405 11795 ft 320 kts 332°
2026-04-22 18:21 54.20057 38.92678 11231 ft 317 kts 332°
2026-04-22 18:21 54.21990 38.90975 10664 ft 314 kts 332°
2026-04-22 18:22 54.23929 38.89273 10123 ft 310 kts 332°
2026-04-22 18:22 54.25800 38.87680 9883 ft 298 kts 332°
2026-04-22 18:22 54.27619 38.86143 9658 ft 286 kts 332°
2026-04-22 18:22 54.29379 38.84652 9446 ft 275 kts 332°
2026-04-22 18:23 54.31064 38.83221 9137 ft 269 kts 332°
2026-04-22 18:23 54.32724 38.81808 8725 ft 267 kts 332°
2026-04-22 18:23 54.34367 38.80405 8303 ft 265 kts 332°
2026-04-22 18:24 54.37655 38.77594 7489 ft 262 kts 331°
2026-04-22 18:24 54.39261 38.76219 7081 ft 260 kts 331°
2026-04-22 18:24 54.42476 38.73460 6268 ft 257 kts 331°
2026-04-22 18:25 54.44078 38.72082 5854 ft 256 kts 331°
2026-04-22 18:25 54.45652 38.70730 5449 ft 255 kts 331°
2026-04-22 18:25 54.47236 38.69367 5037 ft 254 kts 331°
2026-04-22 18:26 54.50379 38.66662 4224 ft 252 kts 331°
2026-04-22 18:26 54.51939 38.65319 3828 ft 251 kts 331°
2026-04-22 18:26 54.53500 38.63971 3418 ft 250 kts 331°
2026-04-22 18:26 54.55047 38.62635 3018 ft 249 kts 330°
2026-04-22 18:27 54.56612 38.61282 2616 ft 249 kts 331°
2026-04-22 18:27 54.58147 38.59954 2251 ft 247 kts 330°
2026-04-22 18:27 54.59671 38.58634 2165 ft 248 kts 330°
2026-04-22 18:27 54.61229 38.57278 2159 ft 249 kts 330°
2026-04-22 18:28 54.62784 38.55926 2153 ft 249 kts 330°
2026-04-22 18:28 54.64326 38.54584 2149 ft 249 kts 331°
2026-04-22 18:28 54.65860 38.53250 2149 ft 249 kts 330°
2026-04-22 18:28 54.67422 38.51890 2152 ft 248 kts 331°
2026-04-22 18:29 54.68969 38.50542 2150 ft 249 kts 330°
2026-04-22 18:29 54.70522 38.49188 2148 ft 249 kts 331°
2026-04-22 18:29 54.72046 38.47796 2144 ft 247 kts 323°
2026-04-22 18:29 54.73278 38.45810 2144 ft 243 kts 305°
2026-04-22 18:30 54.74074 38.43249 2149 ft 242 kts 291°
2026-04-22 18:30 54.75300 38.37791 2149 ft 243 kts 290°
2026-04-22 18:30 54.75905 38.35075 2150 ft 242 kts 290°
2026-04-22 18:31 54.76521 38.32325 2152 ft 243 kts 290°
2026-04-22 18:31 54.77135 38.29594 2147 ft 242 kts 290°
2026-04-22 18:31 54.77745 38.26890 2148 ft 243 kts 290°
2026-04-22 18:31 54.78366 38.24143 2149 ft 243 kts 290°
2026-04-22 18:32 54.79175 38.21646 2134 ft 232 kts 311°
2026-04-22 18:32 54.80489 38.20165 2146 ft 229 kts 336°
2026-04-22 18:32 54.82018 38.19321 2148 ft 230 kts 340°
2026-04-22 18:32 54.83553 38.18545 2146 ft 230 kts 341°
2026-04-22 18:33 54.85082 38.17768 2147 ft 230 kts 340°
2026-04-22 18:33 54.86628 38.16967 2148 ft 231 kts 340°
2026-04-22 18:33 54.88196 38.16544 2132 ft 227 kts
2026-04-22 18:33 54.89667 38.17511 2139 ft 232 kts 34°
2026-04-22 18:34 54.90680 38.19694 2134 ft 236 kts 66°
2026-04-22 18:34 54.91170 38.22419 2144 ft 239 kts 75°
2026-04-22 18:34 54.91571 38.25205 2146 ft 239 kts 74°
2026-04-22 18:34 54.91981 38.28001 2145 ft 240 kts 72°
2026-04-22 18:35 54.92601 38.30677 2139 ft 238 kts 58°
2026-04-22 18:35 54.93526 38.33035 2139 ft 238 kts 50°
2026-04-22 18:35 54.94552 38.35276 2146 ft 237 kts 48°
2026-04-22 18:35 54.95591 38.37505 2147 ft 236 kts 48°
2026-04-22 18:36 54.96624 38.39751 2140 ft 236 kts 49°
2026-04-22 18:36 54.97697 38.41883 2137 ft 235 kts 39°
2026-04-22 18:36 54.99012 38.43533 2144 ft 232 kts 26°
2026-04-22 18:36 55.00446 38.44868 2141 ft 232 kts 23°
2026-04-22 18:37 55.01879 38.46129 2142 ft 231 kts 23°
2026-04-22 18:37 55.03320 38.47387 2141 ft 231 kts 19°
2026-04-22 18:37 55.04872 38.47863 2128 ft 221 kts 348°
2026-04-22 18:37 55.06267 38.46933 2134 ft 215 kts 319°
2026-04-22 18:38 55.07209 38.45002 2136 ft 210 kts 293°
2026-04-22 18:38 55.07659 38.42573 2138 ft 209 kts 283°
2026-04-22 18:38 55.08024 38.40107 2134 ft 210 kts 283°
2026-04-22 18:39 55.08765 38.35189 2135 ft 210 kts 284°
2026-04-22 18:39 55.09145 38.32710 2137 ft 209 kts 284°
2026-04-22 18:39 55.09522 38.30268 2134 ft 209 kts 284°
2026-04-22 18:39 55.09896 38.27834 2135 ft 208 kts 285°
2026-04-22 18:40 55.10279 38.25385 2132 ft 209 kts 284°
2026-04-22 18:40 55.10672 38.22921 2130 ft 209 kts 284°
2026-04-22 18:40 55.11053 38.20498 2131 ft 209 kts 284°
2026-04-22 18:40 55.11438 38.18038 2131 ft 209 kts 284°
2026-04-22 18:41 55.11821 38.15570 2130 ft 209 kts 285°
2026-04-22 18:41 55.12461 38.13317 2117 ft 211 kts 310°
2026-04-22 18:41 55.13697 38.11956 2126 ft 216 kts 340°
2026-04-22 18:41 55.15197 38.11418 2131 ft 219 kts 346°
2026-04-22 18:42 55.16685 38.10974 2129 ft 219 kts 346°
2026-04-22 18:42 55.18205 38.10516 2129 ft 219 kts 346°
2026-04-22 18:42 55.19710 38.10052 2134 ft 219 kts 345°
2026-04-22 18:42 55.21191 38.09589 2128 ft 219 kts 345°
2026-04-22 18:43 55.22702 38.09092 2126 ft 215 kts 342°
2026-04-22 18:43 55.24069 38.08353 2111 ft 198 kts 332°
2026-04-22 18:43 55.25260 38.07294 2066 ft 185 kts 325°
2026-04-22 18:43 55.26321 38.06176 2042 ft 173 kts 323°
2026-04-22 18:44 55.27298 38.05070 2037 ft 160 kts 321°
2026-04-22 18:44 55.28216 38.03986 2180 ft 160 kts 321°
2026-04-22 18:44 55.29131 38.02881 2104 ft 157 kts 321°
2026-04-22 18:44 55.30005 38.01827 2055 ft 149 kts 320°
2026-04-22 18:45 55.30854 38.00795 2050 ft 148 kts 320°
2026-04-22 18:45 55.31698 37.99769 2046 ft 148 kts 320°
2026-04-22 18:45 55.32537 37.98755 2037 ft 139 kts 320°
2026-04-22 18:45 55.33313 37.97819 2030 ft 133 kts 319°
2026-04-22 18:46 55.34081 37.96891 2040 ft 133 kts 320°
2026-04-22 18:46 55.34839 37.95977 2024 ft 130 kts 320°
2026-04-22 18:46 55.35578 37.95086 1746 ft 129 kts 320°
2026-04-22 18:46 55.36324 37.94186 1396 ft 132 kts 320°
2026-04-22 18:47 55.37076 37.93277 1290 ft 133 kts 320°
2026-04-22 18:47 55.37829 37.92359 1104 ft 130 kts 320°
2026-04-22 18:47 55.38570 37.91462 815 ft 129 kts 322°
2026-04-22 18:47 55.39284 37.90611 640 ft 116 kts 321°
2026-04-22 18:48 55.39898 37.89850 538 ft 98 kts 323°
2026-04-22 18:48 55.40349 37.89312 550 ft 59 kts 327°
2026-04-22 18:48 55.40615 37.89014 561 ft 32 kts 342°
2026-04-22 18:48 55.40805 37.88827 566 ft 30 kts 327°
2026-04-22 18:49 55.40936 37.88782 568 ft 0 kts 338°
2026-04-22 18:49 55.40938 37.88781 568 ft 1 kts 339°
2026-04-22 18:49 55.40960 37.88770 569 ft 5 kts 348°
2026-04-22 18:49 55.41022 37.88786 570 ft 13 kts 39°
2026-04-22 18:50 55.40980 37.88940 569 ft 20 kts 140°
2026-04-22 18:50 55.40838 37.89114 564 ft 29 kts 141°
2026-04-22 18:50 55.40826 37.89464 563 ft 35 kts 57°
2026-04-22 18:50 55.40978 37.89833 566 ft 38 kts 53°
2026-04-22 18:51 55.41121 37.90186 567 ft 27 kts 55°
2026-04-22 18:51 55.41222 37.90253 570 ft 9 kts 351°
2026-04-22 18:51 55.41258 37.90219 572 ft 4 kts 320°
2026-04-22 18:51 55.41272 37.90191 573 ft 2 kts 302°
2026-04-22 18:52 55.41278 37.90161 574 ft 3 kts 277°
2026-04-22 18:52 55.41273 37.90116 575 ft 4 kts 243°
2026-04-22 18:52 55.41260 37.90079 575 ft 0 kts 239°
2026-04-22 18:52 55.41259 37.90078 575 ft 0 kts 239°